QPF
0.14 0.16 0.09 0.06 0.05 0.04 0.04 0.07 0.07 0.06 0.06 0.06 0.04 0.03 0.03 0.02 0.03 0.03 0.02 0.02 0.02 0.03 0.03 0.02 0.02 0.02 0.02 0.02 0.03 0.04 0.06 0.06 0.07 0.07 0.06 0.04 0.04 0.04 0.03 0.03 0.05 0.06 0.07
0.09 0.09 0.07 0.05 0.04 0.05 0.04 0.03 0.04 0.05 0.05 0.04 0.02 0.01 0.01 0.01 0.01 0.01 0.01 0.01 0.01 0.02 0.01 0.01 0.01 0.01 0.01 0.02 0.02 0.03 0.03 0.04 0.06 0.06 0.06 0.04 0.03 0.02 0.02 0.03 0.05 0.06 0.08
0.05 0.04 0.04 0.03 0.02 0.03 0.03 0.02 0.03 0.04 0.03 0.02 0.01 0.00 0.00 0.00 0.00 0.00 0.01 0.01 0.01 0.01 0.01 0.01 0.01 0.02 0.01 0.01 0.01 0.02 0.02 0.02 0.03 0.04 0.05 0.04 0.03 0.03 0.02 0.02 0.04 0.07 0.08
0.05 0.03 0.03 0.02 0.02 0.03 0.02 0.02 0.02 0.03 0.03 0.02 0.00 0.00 0.00 0.00 0.00 0.00 0.01 0.01 0.01 0.01 0.01 0.01 0.01 0.01 0.01 0.01 0.01 0.01 0.02 0.02 0.01 0.02 0.02 0.03 0.03 0.02 0.01 0.01 0.02 0.05 0.08
0.03 0.03 0.04 0.03 0.02 0.02 0.01 0.00 0.01 0.02 0.02 0.01 0.00 0.00 0.00 0.00 0.00 0.00 0.00 0.00 0.00 0.01 0.01 0.01 0.01 0.01 0.01 0.01 0.01 0.01 0.02 0.02 0.02 0.01 0.02 0.02 0.03 0.03 0.02 0.01 0.02 0.04 0.04
0.02 0.02 0.02 0.02 0.01 0.01 0.01 0.01 0.00 0.00 0.00 0.00 0.00 0.00 0.01 0.00 0.00 0.00 0.00 0.00 0.00 0.00 0.00 0.00 0.00 0.00 0.01 0.01 0.01 0.01 0.01 0.01 0.01 0.01 0.01 0.02 0.03 0.03 0.02 0.02 0.03 0.03 0.03
0.02 0.01 0.01 0.01 0.01 0.00 0.01 0.01 0.00 0.00 0.00 0.00 0.00 0.00 0.00 0.00 0.00 0.00 0.00 0.00 0.00 0.00 0.00 0.00 0.00 0.00 0.00 0.00 0.00 0.00 0.00 0.01 0.01 0.01 0.01 0.01 0.03 0.03 0.03 0.03 0.03 0.03 0.02
0.01 0.00 0.00 0.00 0.00 0.00 0.00 0.00 0.00 0.00 0.00 0.00 0.00 0.00 0.00 0.00 0.00 0.00 0.00 0.00 0.00 0.00 0.00 0.00 0.00 0.00 0.00 0.00 0.00 0.00 0.00 0.00 0.00 0.01 0.01 0.01 0.01 0.02 0.03 0.03 0.03 0.03 0.02
0.00 0.00 0.00 0.00 0.00 0.00 0.00 0.00 0.00 0.00 0.00 0.00 0.00 0.00 0.00 0.00 0.00 0.00 0.00 0.00 0.00 0.00 0.00 0.00 0.00 0.00 0.00 0.00 0.00 0.00 0.00 0.00 0.00 0.00 0.00 0.01 0.01 0.01 0.01 0.02 0.03 0.04 0.04
0.00 0.00 0.00 0.00 0.00 0.00 0.00 0.00 0.00 0.00 0.00 0.00 0.00 0.00 0.00 0.00 0.00 0.00 0.00 0.00 0.00 0.00 0.00 0.00 0.00 0.00 0.00 0.00 0.00 0.00 0.00 0.00 0.00 0.00 0.00 0.00 0.00 0.01 0.01 0.02 0.02 0.03 0.05
0.01 0.00 0.00 0.00 0.00 0.00 0.00 0.00 0.00 0.00 0.00 0.00 0.00 0.00 0.00 0.00 0.00 0.00 0.00 0.00 0.00 0.00 0.00 0.00 0.00 0.00 0.00 0.00 0.00 0.00 0.00 0.00 0.00 0.00 0.00 0.00 0.00 0.00 0.00 0.01 0.01 0.02 0.05
0.00 0.00 0.00 0.00 0.00 0.00 0.00 0.00 0.00 0.00 0.00 0.00 0.00 0.00 0.00 0.00 0.00 0.00 0.00 0.00 0.00 0.00 0.00 0.00 0.00 0.00 0.00 0.00 0.00 0.00 0.00 0.00 0.00 0.00 0.00 0.00 0.00 0.00 0.00 0.01 0.01 0.01 0.03
0.00 0.00 0.00 0.00 0.00 0.00 0.00 0.00 0.00 0.00 0.00 0.00 0.00 0.00 0.00 0.00 0.00 0.00 0.00 0.00 0.00 0.00 0.00 0.00 0.00 0.00 0.00 0.00 0.00 0.00 0.00 0.00 0.00 0.00 0.00 0.00 0.00 0.01 0.01 0.01 0.01 0.01 0.01
0.00 0.00 0.00 0.00 0.00 0.00 0.00 0.00 0.00 0.00 0.00 0.00 0.00 0.00 0.00 0.00 0.00 0.00 0.00 0.00 0.00 0.00 0.00 0.00 0.00 0.00 0.00 0.00 0.00 0.00 0.00 0.00 0.00 0.00 0.00 0.00 0.00 0.00 0.01 0.01 0.01 0.01 0.01
0.00 0.00 0.00 0.00 0.00 0.00 0.00 0.00 0.00 0.00 0.00 0.00 0.00 0.00 0.00 0.00 0.00 0.00 0.00 0.00 0.00 0.00 0.00 0.00 0.00 0.00 0.00 0.00 0.00 0.00 0.00 0.00 0.00 0.00 0.00 0.00 0.00 0.01 0.01 0.01 0.01 0.01 0.01
0.00 0.00 0.00 0.00 0.00 0.00 0.00 0.00 0.00 0.00 0.00 0.00 0.00 0.00 0.00 0.00 0.00 0.00 0.00 0.00 0.00 0.00 0.00 0.00 0.00 0.00 0.00 0.00 0.00 0.00 0.00 0.00 0.00 0.00 0.00 0.00 0.00 0.00 0.00 0.01 0.01 0.01 0.01
0.00 0.00 0.00 0.00 0.00 0.00 0.00 0.00 0.00 0.00 0.00 0.00 0.00 0.00 0.00 0.00 0.00 0.00 0.00 0.00 0.00 0.00 0.00 0.00 0.00 0.00 0.00 0.00 0.00 0.00 0.00 0.00 0.00 0.00 0.00 0.00 0.00 0.00 0.01 0.01 0.01 0.01 0.01
0.00 0.00 0.00 0.00 0.00 0.00 0.00 0.00 0.00 0.00 0.00 0.00 0.00 0.00 0.00 0.00 0.00 0.00 0.00 0.00 0.00 0.00 0.00 0.00 0.00 0.00 0.00 0.00 0.00 0.00 0.00 0.00 0.00 0.00 0.00 0.00 0.00 0.00 0.01 0.01 0.01 0.01 0.01
0.00 0.00 0.00 0.00 0.00 0.00 0.00 0.00 0.00 0.00 0.00 0.00 0.00 0.00 0.00 0.00 0.00 0.00 0.00 0.00 0.00 0.00 0.00 0.00 0.00 0.00 0.00 0.00 0.00 0.00 0.00 0.00 0.00 0.00 0.00 0.00 0.00 0.00 0.00 0.01 0.01 0.01 0.01
0.00 0.00 0.00 0.00 0.00 0.00 0.00 0.00 0.00 0.00 0.00 0.00 0.00 0.00 0.00 0.00 0.00 0.00 0.00 0.00 0.00 0.00 0.00 0.00 0.00 0.00 0.00 0.00 0.00 0.00 0.00 0.00 0.00 0.00 0.00 0.00 0.00 0.00 0.00 0.01 0.01 0.01 0.02
0.00 0.00 0.00 0.00 0.00 0.00 0.00 0.00 0.00 0.00 0.00 0.00 0.00 0.00 0.00 0.00 0.00 0.00 0.00 0.00 0.00 0.00 0.00 0.00 0.00 0.00 0.00 0.00 0.00 0.00 0.00 0.00 0.00 0.00 0.00 0.00 0.00 0.00 0.00 0.00 0.01 0.01 0.02
0.00 0.00 0.00 0.00 0.00 0.00 0.00 0.00 0.00 0.00 0.00 0.01 0.00 0.00 0.00 0.00 0.00 0.00 0.00 0.00 0.00 0.00 0.00 0.00 0.00 0.00 0.00 0.00 0.00 0.00 0.00 0.00 0.00 0.00 0.00 0.00 0.00 0.00 0.00 0.00 0.00 0.01 0.02
0.00 0.00 0.00 0.00 0.00 0.00 0.00 0.00 0.00 0.00 0.01 0.01 0.00 0.00 0.00 0.00 0.00 0.00 0.00 0.00 0.00 0.00 0.00 0.00 0.00 0.00 0.00 0.00 0.00 0.00 0.00 0.00 0.00 0.00 0.00 0.00 0.00 0.00 0.00 0.00 0.00 0.01 0.01
0.00 0.00 0.00 0.00 0.00 0.00 0.00 0.00 0.00 0.00 0.00 0.00 0.00 0.00 0.00 0.00 0.00 0.00 0.00 0.00 0.00 0.00 0.00 0.00 0.00 0.00 0.00 0.00 0.00 0.00 0.00 0.00 0.00 0.00 0.00 0.00 0.00 0.00 0.00 0.00 0.01 0.01 0.02
0.00 0.00 0.00 0.00 0.00 0.00 0.00 0.00 0.00 0.00 0.00 0.00 0.00 0.00 0.00 0.00 0.00 0.00 0.00 0.00 0.00 0.01 0.01 0.00 0.00 0.00 0.00 0.00 0.00 0.00 0.00 0.00 0.00 0.00 0.00 0.00 0.00 0.01 0.01 0.01 0.01 0.01 0.01
0.01 0.01 0.00 0.00 0.00 0.00 0.00 0.00 0.00 0.00 0.00 0.00 0.00 0.00 0.00 0.00 0.00 0.00 0.00 0.00 0.01 0.01 0.01 0.00 0.00 0.00 0.00 0.00 0.00 0.00 0.00 0.00 0.00 0.00 0.00 0.00 0.01 0.01 0.01 0.01 0.01 0.02 0.02
MSLP
1014.54 1014.72 1014.84 1014.88 1014.83 1014.71 1014.54 1014.39 1014.27 1014.21 1014.23 1014.30 1014.41 1014.51 1014.57 1014.56 1014.49 1014.37 1014.23 1014.11 1014.05 1014.07 1014.20 1014.42 1014.71 1015.04 1015.36 1015.65 1015.87 1016.03 1016.12 1016.16 1016.18 1016.20 1016.21 1016.22 1016.22 1016.18 1016.08 1015.93 1015.73 1015.51 1015.30
1014.84 1015.16 1015.40 1015.51 1015.49 1015.36 1015.16 1014.96 1014.81 1014.75 1014.78 1014.88 1015.02 1015.13 1015.19 1015.16 1015.02 1014.81 1014.56 1014.34 1014.18 1014.13 1014.20 1014.40 1014.69 1015.02 1015.35 1015.64 1015.86 1016.02 1016.10 1016.15 1016.17 1016.20 1016.23 1016.25 1016.24 1016.19 1016.06 1015.85 1015.58 1015.27 1014.97
1014.98 1015.44 1015.79 1015.99 1016.02 1015.90 1015.70 1015.47 1015.31 1015.24 1015.29 1015.43 1015.60 1015.76 1015.83 1015.79 1015.62 1015.35 1015.03 1014.72 1014.47 1014.35 1014.37 1014.53 1014.78 1015.09 1015.40 1015.66 1015.86 1015.99 1016.07 1016.11 1016.15 1016.19 1016.25 1016.30 1016.32 1016.27 1016.13 1015.90 1015.58 1015.20 1014.82
1014.98 1015.54 1016.00 1016.28 1016.37 1016.28 1016.08 1015.85 1015.68 1015.62 1015.69 1015.86 1016.08 1016.28 1016.40 1016.38 1016.21 1015.92 1015.57 1015.21 1014.91 1014.73 1014.69 1014.79 1014.99 1015.25 1015.51 1015.73 1015.89 1015.99 1016.04 1016.07 1016.11 1016.17 1016.26 1016.34 1016.40 1016.39 1016.27 1016.03 1015.69 1015.27 1014.82
1014.85 1015.49 1016.03 1016.39 1016.53 1016.48 1016.29 1016.08 1015.91 1015.85 1015.94 1016.14 1016.40 1016.65 1016.82 1016.85 1016.72 1016.46 1016.10 1015.74 1015.42 1015.20 1015.12 1015.16 1015.30 1015.50 1015.69 1015.85 1015.95 1016.00 1016.01 1016.02 1016.06 1016.13 1016.24 1016.36 1016.46 1016.49 1016.41 1016.19 1015.85 1015.41 1014.92
1014.66 1015.33 1015.93 1016.35 1016.54 1016.53 1016.37 1016.16 1015.99 1015.94 1016.03 1016.26 1016.55 1016.84 1017.07 1017.16 1017.09 1016.88 1016.57 1016.23 1015.92 1015.70 1015.59 1015.59 1015.67 1015.79 1015.92 1016.01 1016.04 1016.03 1016.00 1015.98 1016.00 1016.07 1016.19 1016.34 1016.47 1016.53 1016.49 1016.31 1016.00 1015.57 1015.07
1014.45 1015.14 1015.77 1016.23 1016.46 1016.48 1016.35 1016.15 1015.99 1015.94 1016.03 1016.25 1016.56 1016.89 1017.15 1017.30 1017.30 1017.16 1016.92 1016.63 1016.36 1016.15 1016.02 1015.99 1016.03 1016.10 1016.16 1016.18 1016.16 1016.09 1016.01 1015.94 1015.93 1015.98 1016.09 1016.24 1016.38 1016.47 1016.47 1016.33 1016.05 1015.66 1015.17
1014.27 1014.96 1015.60 1016.09 1016.36 1016.41 1016.30 1016.12 1015.96 1015.90 1015.98 1016.19 1016.49 1016.83 1017.12 1017.31 1017.37 1017.30 1017.13 1016.90 1016.67 1016.49 1016.38 1016.33 1016.34 1016.36 1016.37 1016.34 1016.26 1016.14 1016.01 1015.90 1015.84 1015.86 1015.94 1016.07 1016.20 1016.30 1016.31 1016.21 1015.98 1015.64 1015.20
1014.15 1014.83 1015.48 1015.98 1016.27 1016.35 1016.27 1016.11 1015.96 1015.89 1015.95 1016.13 1016.41 1016.73 1017.03 1017.24 1017.34 1017.32 1017.20 1017.03 1016.85 1016.70 1016.60 1016.55 1016.54 1016.54 1016.51 1016.45 1016.33 1016.17 1016.00 1015.85 1015.75 1015.71 1015.74 1015.83 1015.93 1016.01 1016.03 1015.95 1015.77 1015.48 1015.11
1014.10 1014.76 1015.40 1015.90 1016.20 1016.32 1016.27 1016.14 1016.00 1015.93 1015.97 1016.13 1016.37 1016.66 1016.93 1017.13 1017.24 1017.25 1017.17 1017.04 1016.90 1016.77 1016.69 1016.64 1016.62 1016.61 1016.57 1016.48 1016.34 1016.16 1015.97 1015.78 1015.64 1015.55 1015.52 1015.54 1015.59 1015.63 1015.63 1015.56 1015.41 1015.19 1014.89
1014.09 1014.73 1015.34 1015.82 1016.14 1016.27 1016.26 1016.17 1016.07 1016.02 1016.05 1016.18 1016.39 1016.63 1016.86 1017.03 1017.12 1017.12 1017.06 1016.94 1016.82 1016.71 1016.64 1016.59 1016.58 1016.55 1016.51 1016.42 1016.28 1016.10 1015.90 1015.70 1015.51 1015.37 1015.28 1015.23 1015.22 1015.20 1015.17 1015.09 1014.97 1014.78 1014.56
1014.09 1014.68 1015.26 1015.71 1016.02 1016.18 1016.21 1016.17 1016.11 1016.09 1016.14 1016.26 1016.43 1016.63 1016.81 1016.93 1016.99 1016.97 1016.89 1016.78 1016.65 1016.54 1016.47 1016.43 1016.41 1016.40 1016.36 1016.28 1016.16 1015.99 1015.79 1015.58 1015.37 1015.19 1015.04 1014.93 1014.84 1014.76 1014.68 1014.58 1014.46 1014.32 1014.16
1014.06 1014.60 1015.11 1015.53 1015.82 1015.99 1016.06 1016.07 1016.07 1016.10 1016.17 1016.30 1016.46 1016.62 1016.75 1016.83 1016.84 1016.79 1016.69 1016.55 1016.42 1016.31 1016.23 1016.19 1016.17 1016.15 1016.12 1016.06 1015.96 1015.82 1015.63 1015.42 1015.21 1015.00 1014.81 1014.64 1014.48 1014.34 1014.21 1014.08 1013.95 1013.83 1013.71
1013.98 1014.47 1014.90 1015.26 1015.52 1015.69 1015.79 1015.86 1015.92 1016.00 1016.11 1016.26 1016.41 1016.54 1016.65 1016.68 1016.66 1016.58 1016.45 1016.30 1016.15 1016.03 1015.94 1015.89 1015.87 1015.86 1015.84 1015.79 1015.71 1015.59 1015.43 1015.24 1015.03 1014.80 1014.58 1014.36 1014.15 1013.96 1013.77 1013.61 1013.46 1013.34 1013.24
1013.87 1014.28 1014.63 1014.91 1015.13 1015.29 1015.41 1015.52 1015.64 1015.77 1015.93 1016.09 1016.25 1016.38 1016.46 1016.47 1016.42 1016.31 1016.17 1016.01 1015.86 1015.73 1015.64 1015.58 1015.55 1015.54 1015.52 1015.49 1015.42 1015.33 1015.19 1015.02 1014.81 1014.59 1014.35 1014.10 1013.85 1013.61 1013.39 1013.18 1013.01 1012.88 1012.78
1013.73 1014.05 1014.32 1014.53 1014.70 1014.84 1014.97 1015.11 1015.27 1015.44 1015.63 1015.82 1015.98 1016.11 1016.17 1016.18 1016.12 1016.01 1015.86 1015.70 1015.55 1015.42 1015.33 1015.27 1015.23 1015.22 1015.20 1015.17 1015.12 1015.03 1014.91 1014.76 1014.57 1014.35 1014.11 1013.85 1013.58 1013.30 1013.04 1012.80 1012.60 1012.44 1012.34
1013.56 1013.82 1014.01 1014.16 1014.28 1014.40 1014.52 1014.67 1014.85 1015.05 1015.26 1015.46 1015.63 1015.75 1015.82 1015.82 1015.76 1015.66 1015.53 1015.38 1015.25 1015.13 1015.04 1014.98 1014.94 1014.91 1014.89 1014.85 1014.80 1014.73 1014.62 1014.48 1014.31 1014.10 1013.86 1013.59 1013.31 1013.02 1012.73 1012.46 1012.22 1012.04 1011.91
1013.36 1013.57 1013.71 1013.81 1013.90 1014.00 1014.12 1014.27 1014.45 1014.66 1014.87 1015.07 1015.23 1015.35 1015.41 1015.42 1015.38 1015.29 1015.18 1015.07 1014.96 1014.85 1014.77 1014.71 1014.66 1014.62 1014.59 1014.54 1014.49 1014.41 1014.32 1014.19 1014.03 1013.83 1013.60 1013.34 1013.05 1012.74 1012.43 1012.14 1011.88 1011.66 1011.49
1013.10 1013.28 1013.40 1013.49 1013.57 1013.66 1013.78 1013.93 1014.11 1014.31 1014.51 1014.69 1014.85 1014.96 1015.02 1015.03 1015.00 1014.94 1014.86 1014.77 1014.67 1014.59 1014.52 1014.45 1014.40 1014.34 1014.29 1014.24 1014.17 1014.10 1014.00 1013.89 1013.74 1013.55 1013.34 1013.08 1012.79 1012.48 1012.16 1011.84 1011.55 1011.29 1011.09
1012.73 1012.92 1013.06 1013.17 1013.27 1013.37 1013.50 1013.66 1013.83 1014.02 1014.20 1014.37 1014.51 1014.61 1014.66 1014.68 1014.66 1014.62 1014.56 1014.48 1014.41 1014.33 1014.26 1014.18 1014.12 1014.05 1013.98 1013.92 1013.85 1013.77 1013.68 1013.58 1013.44 1013.27 1013.06 1012.82 1012.53 1012.21 1011.88 1011.54 1011.22 1010.94 1010.70
1012.21 1012.44 1012.62 1012.78 1012.93 1013.08 1013.24 1013.41 1013.59 1013.77 1013.94 1014.09 1014.22 1014.31 1014.36 1014.38 1014.37 1014.33 1014.28 1014.21 1014.13 1014.05 1013.97 1013.89 1013.80 1013.72 1013.65 1013.58 1013.50 1013.43 1013.35 1013.26 1013.14 1012.98 1012.79 1012.55 1012.26 1011.94 1011.60 1011.25 1010.91 1010.59 1010.31
1011.53 1011.82 1012.08 1012.31 1012.53 1012.73 1012.93 1013.14 1013.33 1013.52 1013.69 1013.84 1013.96 1014.04 1014.09 1014.11 1014.10 1014.06 1014.00 1013.92 1013.83 1013.73 1013.64 1013.53 1013.43 1013.34 1013.26 1013.19 1013.12 1013.07 1013.01 1012.93 1012.83 1012.69 1012.51 1012.27 1011.99 1011.67 1011.32 1010.95 1010.59 1010.24 1009.94
1010.72 1011.08 1011.41 1011.72 1012.02 1012.29 1012.55 1012.79 1013.02 1013.23 1013.41 1013.56 1013.69 1013.77 1013.83 1013.84 1013.82 1013.77 1013.70 1013.59 1013.48 1013.35 1013.22 1013.09 1012.98 1012.88 1012.80 1012.74 1012.70 1012.66 1012.63 1012.58 1012.50 1012.38 1012.21 1011.98 1011.70 1011.37 1011.01 1010.64 1010.26 1009.90 1009.58
1009.87 1010.28 1010.68 1011.07 1011.42 1011.76 1012.07 1012.36 1012.62 1012.85 1013.05 1013.22 1013.35 1013.45 1013.51 1013.52 1013.49 1013.42 1013.32 1013.19 1013.04 1012.87 1012.71 1012.56 1012.43 1012.33 1012.26 1012.23 1012.22 1012.22 1012.22 1012.20 1012.14 1012.04 1011.88 1011.66 1011.38 1011.04 1010.68 1010.29 1009.91 1009.55 1009.22
1009.10 1009.54 1009.97 1010.40 1010.80 1011.17 1011.51 1011.83 1012.11 1012.36 1012.59 1012.77 1012.92 1013.03 1013.09 1013.11 1013.07 1012.98 1012.85 1012.68 1012.49 1012.29 1012.10 1011.93 1011.79 1011.70 1011.65 1011.64 1011.67 1011.71 1011.75 1011.76 1011.73 1011.65 1011.49 1011.28 1010.99 1010.66 1010.29 1009.91 1009.53 1009.18 1008.85
1008.54 1008.96 1009.38 1009.80 1010.20 1010.58 1010.92 1011.23 1011.52 1011.78 1012.01 1012.21 1012.37 1012.49 1012.56 1012.57 1012.52 1012.41 1012.25 1012.05 1011.83 1011.59 1011.38 1011.20 1011.06 1010.98 1010.96 1010.99 1011.05 1011.13 1011.21 1011.25 1011.24 1011.17 1011.02 1010.80 1010.52 1010.19 1009.83 1009.46 1009.10 1008.76 1008.47
Thickness
5739 5741 5743 5745 5744 5742 5740 5738 5736 5735 5734 5732 5728 5726 5723 5723 5722 5721 5719 5718 5716 5714 5713 5711 5709 5707 5705 5704 5704 5703 5702 5701 5701 5699 5699 5702 5706 5707 5709 5711 5712 5713 5713
5732 5734 5736 5737 5737 5735 5734 5732 5731 5729 5728 5726 5724 5722 5719 5717 5716 5714 5713 5712 5711 5710 5708 5706 5704 5702 5700 5699 5697 5697 5695 5694 5695 5692 5689 5687 5692 5700 5706 5707 5708 5710 5711
5730 5731 5732 5732 5732 5731 5729 5729 5726 5724 5722 5721 5720 5717 5714 5711 5709 5707 5706 5706 5706 5705 5704 5702 5699 5697 5695 5692 5691 5690 5688 5685 5687 5687 5683 5678 5678 5685 5694 5699 5702 5704 5705
5731 5731 5731 5729 5729 5728 5727 5725 5723 5720 5718 5717 5714 5710 5705 5701 5701 5700 5700 5701 5700 5700 5698 5696 5694 5691 5689 5687 5686 5684 5682 5680 5678 5678 5679 5678 5677 5675 5678 5687 5693 5697 5699
5732 5731 5730 5729 5728 5727 5725 5722 5720 5717 5715 5713 5710 5706 5702 5699 5697 5696 5695 5694 5694 5693 5692 5690 5688 5685 5683 5682 5680 5678 5677 5674 5672 5671 5670 5670 5671 5671 5669 5671 5678 5685 5692
5733 5731 5730 5728 5726 5725 5723 5720 5717 5714 5712 5710 5707 5703 5699 5696 5693 5690 5688 5687 5686 5686 5685 5684 5681 5679 5677 5675 5673 5672 5670 5668 5667 5665 5663 5661 5661 5661 5662 5662 5666 5672 5681
5733 5730 5728 5726 5724 5723 5721 5718 5715 5711 5709 5707 5704 5701 5698 5694 5690 5687 5684 5682 5680 5679 5678 5677 5675 5673 5671 5669 5667 5665 5663 5662 5660 5658 5657 5656 5655 5656 5656 5656 5657 5662 5669
5734 5732 5731 5728 5726 5723 5720 5717 5713 5709 5707 5705 5702 5699 5696 5692 5688 5686 5683 5680 5677 5675 5674 5672 5669 5667 5665 5663 5660 5658 5656 5655 5653 5652 5651 5650 5650 5649 5649 5650 5650 5650 5655
5736 5734 5732 5729 5727 5724 5720 5717 5712 5708 5706 5703 5700 5697 5693 5690 5686 5683 5681 5677 5675 5672 5670 5667 5664 5661 5659 5656 5654 5651 5649 5647 5646 5644 5644 5642 5643 5643 5643 5644 5644 5643 5643
5737 5734 5732 5730 5727 5724 5720 5717 5713 5708 5705 5702 5699 5696 5692 5688 5685 5681 5677 5674 5671 5668 5665 5662 5659 5656 5653 5650 5647 5644 5642 5640 5638 5637 5636 5635 5635 5635 5636 5636 5637 5638 5638
5738 5735 5732 5729 5726 5723 5719 5715 5711 5708 5704 5701 5698 5694 5690 5686 5682 5678 5675 5671 5668 5665 5661 5657 5653 5650 5647 5644 5640 5637 5635 5632 5630 5629 5628 5627 5627 5627 5627 5628 5629 5630 5631
5739 5735 5731 5728 5724 5720 5717 5714 5711 5707 5704 5700 5696 5692 5688 5684 5680 5676 5672 5669 5665 5661 5657 5653 5648 5645 5641 5638 5634 5630 5628 5625 5623 5621 5620 5619 5619 5619 5619 5619 5620 5622 5624
5736 5732 5729 5725 5722 5719 5717 5714 5710 5707 5703 5699 5694 5690 5685 5681 5677 5674 5670 5666 5661 5657 5652 5648 5644 5640 5636 5632 5628 5624 5621 5618 5616 5614 5612 5611 5610 5610 5610 5611 5612 5613 5617
5736 5730 5726 5723 5722 5719 5716 5713 5709 5706 5702 5698 5693 5688 5684 5680 5676 5672 5667 5663 5658 5653 5648 5644 5639 5635 5631 5627 5623 5619 5614 5611 5609 5607 5605 5604 5603 5602 5602 5603 5604 5605 5606
5733 5731 5726 5722 5720 5717 5715 5712 5708 5705 5701 5696 5691 5687 5683 5679 5674 5669 5665 5660 5655 5651 5645 5640 5635 5631 5627 5622 5617 5612 5609 5604 5601 5599 5598 5597 5597 5597 5596 5597 5596 5596 5597
5736 5732 5728 5724 5721 5718 5715 5711 5707 5704 5700 5695 5690 5686 5681 5676 5672 5667 5662 5657 5652 5647 5642 5637 5632 5627 5624 5619 5614 5608 5602 5598 5594 5592 5591 5590 5590 5590 5590 5590 5590 5590 5589
5738 5734 5730 5727 5723 5719 5716 5710 5706 5702 5698 5693 5689 5684 5679 5674 5669 5665 5659 5654 5648 5643 5638 5633 5628 5623 5619 5615 5610 5604 5598 5593 5589 5586 5583 5583 5584 5582 5581 5581 5582 5583 5584
5740 5736 5732 5727 5723 5719 5715 5710 5706 5701 5696 5691 5686 5682 5677 5672 5667 5662 5656 5651 5646 5640 5635 5631 5626 5620 5617 5612 5607 5601 5594 5588 5585 5581 5579 5576 5575 5574 5572 5572 5573 5574 5575
5744 5739 5734 5728 5722 5718 5714 5708 5703 5698 5693 5689 5684 5680 5675 5670 5664 5658 5654 5649 5643 5638 5633 5628 5623 5618 5614 5609 5604 5597 5589 5584 5581 5578 5575 5572 5569 5567 5566 5564 5563 5565 5567
5743 5738 5732 5726 5720 5716 5711 5705 5699 5694 5691 5688 5683 5679 5674 5668 5662 5657 5652 5647 5641 5636 5631 5626 5621 5616 5611 5607 5601 5594 5586 5580 5577 5573 5570 5568 5564 5562 5560 5556 5555 5555 5558
5740 5736 5729 5723 5718 5714 5708 5701 5696 5692 5690 5686 5681 5676 5671 5665 5660 5655 5650 5645 5639 5633 5627 5622 5618 5614 5609 5604 5599 5592 5583 5578 5573 5569 5565 5562 5560 5557 5554 5552 5549 5550 5551
5735 5731 5725 5719 5715 5711 5705 5698 5693 5692 5688 5683 5677 5672 5667 5663 5660 5652 5647 5642 5636 5629 5624 5618 5613 5610 5605 5601 5595 5589 5583 5577 5569 5565 5562 5558 5555 5552 5550 5548 5547 5546 5545
5732 5728 5721 5715 5710 5706 5702 5695 5692 5689 5683 5678 5672 5668 5664 5659 5655 5649 5643 5638 5632 5626 5620 5614 5609 5605 5602 5597 5592 5586 5580 5574 5567 5563 5559 5555 5551 5548 5546 5545 5544 5542 5540
5727 5722 5716 5709 5704 5701 5698 5695 5691 5685 5679 5673 5668 5664 5659 5655 5651 5646 5641 5634 5629 5623 5617 5612 5606 5602 5597 5592 5587 5581 5575 5570 5564 5559 5555 5552 5548 5546 5544 5542 5541 5539 5537
5722 5717 5711 5706 5702 5699 5695 5692 5687 5681 5674 5669 5664 5659 5655 5650 5646 5642 5638 5633 5629 5624 5617 5612 5606 5599 5593 5591 5585 5577 5571 5565 5559 5553 5549 5546 5544 5542 5541 5539 5538 5537 5536
5716 5711 5706 5703 5699 5694 5690 5686 5682 5676 5670 5664 5659 5654 5650 5646 5642 5637 5634 5633 5628 5624 5618 5612 5605 5599 5594 5589 5582 5575 5569 5562 5556 5548 5545 5543 5541 5540 5539 5537 5536 5536 5535